Wind_Speed
47 46 45 45 43 42 43 43 43 42 42 43 41 38 36 34 34 34 34 33 33 33 33 33 33 34 36 36 35 35 34 32 32 32 30 28 30 32 33 33 30 25 21 20 20 17 16 16 15 14 13 13 13 13 14 16 18 20 22 23 24 26 28 29 31 33 34 37 39 40 42 44 45 47 48 49 50 52 54 54 54 54 54 54 55 55
48 47 45 44 43 41 40 41 42 42 42 42 40 38 37 35 33 32 32 32 31 31 31 31 32 32 34 35 34 33 32 31 30 30 29 28 29 31 32 30 28 26 23 22 20 18 17 17 15 14 14 14 14 14 15 17 19 21 23 24 26 27 29 31 32 34 36 38 40 42 44 46 47 49 50 51 52 53 54 54 54 55 55 55 55 55
48 47 44 43 41 40 38 38 40 40 40 40 40 38 37 36 33 32 33 32 30 30 29 30 31 31 31 32 33 32 29 29 29 29 28 26 26 29 30 28 28 26 25 24 21 19 18 17 16 15 14 14 14 15 16 19 21 22 24 25 27 28 30 32 34 35 38 40 42 44 45 47 49 50 51 52 53 54 54 54 54 55 55 54 54 53
47 45 43 42 40 39 38 37 38 39 39 39 38 37 36 35 34 33 32 31 31 30 29 29 30 30 30 30 32 31 27 26 26 26 27 27 25 27 29 29 28 26 25 25 22 20 19 17 16 15 15 14 14 16 18 20 22 24 25 26 27 29 31 33 35 37 39 42 43 45 47 49 50 51 52 52 53 53 52 52 52 52 51 51 52 54
45 44 42 41 39 38 38 38 37 37 38 38 36 35 35 35 35 33 31 30 30 30 29 29 29 29 29 29 30 30 28 26 25 24 26 28 26 26 27 28 28 26 25 25 22 20 19 17 16 15 15 14 15 17 19 22 23 24 25 27 29 31 33 35 37 39 41 43 45 47 48 49 51 52 52 52 52 51 52 52 51 50 51 52 54 55
45 43 42 40 39 38 38 37 36 36 36 35 34 34 34 35 34 33 32 31 30 30 29 29 28 28 27 27 28 30 28 26 25 24 24 26 27 27 26 27 28 25 25 25 22 20 18 17 16 15 14 15 16 19 21 23 24 25 27 28 30 32 34 37 39 41 43 45 46 48 49 50 51 52 51 51 51 51 52 51 51 51 52 54 55 55
44 43 41 40 39 38 37 36 35 35 34 32 32 31 32 33 33 32 32 31 31 31 30 29 29 27 26 26 27 28 27 25 24 24 24 24 25 27 27 28 28 25 23 23 20 18 17 16 15 14 15 16 18 20 22 23 25 26 28 30 31 34 36 38 40 42 44 45 47 48 49 50 50 50 50 50 50 50 50 50 51 52 53 53 54 53
43 43 42 40 40 39 37 35 33 32 31 29 29 30 29 30 31 32 33 32 32 31 31 31 30 27 25 24 25 26 26 24 23 22 24 25 24 26 27 26 24 22 21 20 18 17 16 15 15 15 16 18 19 21 23 24 26 28 29 31 33 35 37 40 42 43 45 46 47 48 49 49 49 48 49 48 48 48 49 50 52 53 52 51 51 51
43 42 42 41 40 38 35 33 32 30 28 27 27 28 27 27 28 31 33 33 33 32 32 31 30 29 26 23 22 24 23 21 18 16 18 21 20 19 21 20 18 19 18 18 17 16 15 15 15 16 17 19 20 22 24 26 27 29 31 32 34 37 39 41 43 44 45 46 47 48 48 47 47 47 47 46 47 48 50 51 51 51 50 49 49 49
43 42 41 39 37 36 34 32 30 29 27 26 26 25 25 25 27 30 32 33 33 32 32 31 31 29 27 25 22 20 21 19 14 12 11 12 12 12 14 15 16 17 16 16 15 15 15 15 16 17 18 20 21 23 25 27 28 30 32 34 36 38 40 42 43 45 45 46 47 46 46 46 46 46 45 46 47 49 50 50 49 48 48 47 48 49
43 42 40 38 36 35 33 32 30 29 27 26 25 24 24 25 27 28 30 32 33 32 31 31 31 30 28 28 25 21 21 19 13 10 6 5 6 9 12 15 16 16 15 14 15 15 15 16 17 18 20 21 23 24 26 28 29 31 33 35 38 40 41 43 44 45 46 46 45 45 45 44 44 44 46 47 48 49 49 48 47 47 47 48 49 49
42 41 39 37 36 35 33 32 31 29 28 26 25 24 24 25 25 25 26 28 30 30 30 29 29 29 28 28 28 26 24 20 13 8 7 6 7 9 13 15 15 14 14 15 15 15 15 16 18 19 21 23 25 26 28 29 31 33 35 37 39 41 42 43 44 45 45 44 44 43 43 43 43 45 47 48 48 47 46 46 46 46 48 49 50 50
42 41 40 38 36 35 33 32 31 29 28 27 25 24 23 23 23 23 23 25 27 27 27 27 27 27 27 27 28 27 26 24 21 19 16 12 10 11 13 13 13 13 14 15 15 15 16 18 19 20 22 24 26 27 29 30 32 35 36 38 40 41 42 43 44 43 43 42 42 42 41 42 44 46 46 46 46 45 44 45 46 48 49 50 51 51
42 41 40 38 36 35 33 32 30 29 28 26 24 23 22 22 22 22 22 22 23 22 22 22 24 25 26 25 23 24 27 27 26 24 20 16 12 12 14 13 13 14 14 15 16 16 17 19 20 22 24 25 27 28 30 32 34 36 37 39 40 41 42 42 42 41 41 41 40 40 41 43 45 45 45 44 43 43 44 46 48 49 50 51 51 50
42 42 40 38 36 35 33 31 30 29 28 26 25 24 23 22 21 19 19 17 15 15 16 18 21 22 22 21 20 22 25 25 23 22 19 15 13 14 15 15 15 15 16 16 17 17 18 20 22 24 25 26 28 29 31 33 35 36 38 39 40 41 41 40 40 40 40 39 39 40 42 43 44 43 42 41 42 43 46 48 49 50 51 51 50 49
40 40 39 37 35 34 33 31 30 28 26 25 24 23 22 21 19 17 14 12 11 12 14 16 17 18 18 17 17 20 22 20 19 19 16 14 14 16 16 16 16 16 16 17 17 18 20 22 24 25 26 27 29 31 33 34 36 37 38 39 40 40 39 38 38 38 38 38 39 41 42 42 41 40 40 41 43 46 48 49 51 51 51 50 49 48
39 38 38 36 34 33 32 30 29 27 25 24 23 22 20 18 18 17 15 13 14 14 13 14 14 14 15 15 15 16 16 16 16 16 15 15 16 17 16 16 16 16 16 17 18 20 22 24 25 26 27 29 31 32 34 35 36 37 38 38 38 38 37 37 37 37 37 38 40 41 40 39 38 39 40 43 45 47 49 50 51 50 49 48 48 48
36 36 37 36 34 33 32 30 29 27 25 24 22 21 20 19 19 18 17 16 16 14 13 13 13 12 13 13 12 13 14 14 15 15 15 16 16 16 15 15 15 16 17 19 21 22 24 25 26 27 29 31 32 33 34 35 36 37 37 37 37 36 36 36 35 36 37 39 39 38 37 37 37 40 42 45 47 49 50 50 50 49 49 48 48 48
33 34 35 34 33 32 31 30 29 28 26 23 21 21 21 21 20 19 18 17 16 14 12 13 13 13 14 13 13 13 14 14 14 15 15 14 14 14 14 15 16 17 19 21 23 24 25 26 27 29 30 31 33 33 34 35 36 36 36 36 36 35 34 34 35 36 37 37 36 35 35 36 39 42 44 46 48 49 50 50 49 49 48 48 48 48
33 32 34 33 32 31 31 29 29 28 26 23 22 22 21 20 18 18 17 16 15 14 13 13 14 13 14 14 13 14 13 13 13 13 13 13 14 14 15 16 18 20 21 23 24 25 26 27 29 30 31 32 33 33 34 35 35 35 35 35 34 33 33 33 35 36 36 34 33 33 35 38 41 43 45 47 49 50 50 50 49 49 48 48 48 48
31 29 31 32 31 30 30 29 28 27 25 24 23 22 21 19 18 18 17 16 15 15 13 13 14 13 13 13 13 13 13 13 13 13 14 14 15 16 17 19 20 22 23 24 25 26 27 28 29 30 31 32 32 33 34 34 34 35 34 33 31 31 32 34 34 34 33 31 32 34 37 40 42 44 46 48 50 50 50 50 49 49 48 48 48 48
30 28 28 30 30 29 28 27 26 25 24 24 23 21 19 18 18 18 17 17 16 15 14 14 14 13 13 13 13 13 13 13 14 15 15 16 17 18 19 20 22 23 24 24 26 27 28 29 29 30 31 31 32 33 33 34 34 33 31 30 30 31 32 33 32 31 30 30 33 36 38 41 43 45 47 49 50 50 50 50 49 49 49 49 49 49
29 29 27 27 27 27 27 26 25 24 24 22 21 20 19 18 18 17 16 15 15 15 15 15 14 13 14 15 14 14 15 15 16 16 17 18 19 20 20 21 22 23 24 25 26 27 28 28 29 30 30 31 32 32 33 33 32 30 28 29 30 31 31 31 29 28 29 31 34 37 39 42 44 46 48 50 50 51 51 50 50 49 49 49 49 49
28 27 26 24 24 23 23 24 24 23 23 21 19 19 19 18 18 16 15 15 14 15 15 15 14 14 15 15 15 15 16 16 17 17 18 19 19 20 21 22 23 24 25 26 26 27 27 28 29 30 31 31 32 32 32 30 28 27 28 29 29 30 29 28 27 27 30 32 35 37 40 43 45 47 49 50 51 51 51 51 51 50 50 50 50 50
27 27 27 25 23 23 22 21 21 21 21 20 19 18 17 17 17 16 15 15 15 15 15 15 14 14 15 15 15 15 16 16 17 17 18 19 20 21 22 23 24 24 25 25 26 26 27 28 29 30 31 31 32 31 29 26 25 27 28 28 28 28 27 26 26 28 31 33 36 38 41 44 46 48 49 50 51 52 52 52 52 51 51 51 50 50
24 26 27 26 25 24 22 21 20 19 19 19 19 18 17 16 16 16 16 15 15 14 14 14 14 14 14 16 16 16 16 17 17 18 19 20 21 22 22 23 24 24 25 25 26 27 28 29 30 30 31 31 29 26 24 24 26 27 27 27 27 26 25 24 26 29 31 34 36 39 42 45 47 48 49 51 52 53 53 52 52 52 52 51 50 49
22 23 24 25 24 23 21 20 19 19 18 18 18 18 17 16 16 15 15 14 14 14 13 13 13 13 14 16 16 16 17 18 18 19 20 21 22 22 23 24 24 25 25 26 27 28 29 29 30 30 29 27 24 23 24 25 26 26 26 27 26 24 23 24 27 29 32 35 37 41 44 46 47 49 50 51 53 54 53 53 53 53 52 50 49 47
21 21 22 23 22 21 20 19 18 18 17 17 17 16 16 16 15 14 14 13 13 14 14 14 15 15 15 17 17 17 18 19 19 20 21 22 22 22 23 24 25 25 26 27 28 28 29 29 29 27 24 22 22 23 24 24 25 25 26 25 23 22 23 25 27 30 32 35 39 42 45 47 48 49 50 52 53 54 54 53 53 52 51 49 47 46
21 20 21 21 21 21 20 19 19 18 17 16 16 15 16 15 15 15 14 14 15 15 14 15 16 16 18 19 19 19 19 20 20 21 22 22 22 23 24 25 26 27 27 28 27 27 27 26 24 22 21 21 23 23 23 24 25 25 24 23 21 21 23 25 28 31 33 37 40 44 46 47 49 50 51 52 53 54 54 53 53 52 50 48 46 45
20 19 19 19 20 20 19 19 19 18 17 17 16 16 15 15 16 16 16 16 17 16 16 18 18 18 20 21 19 19 21 21 21 22 22 23 23 24 25 26 27 27 27 26 26 25 23 21 20 20 21 22 22 22 23 24 24 24 22 20 20 21 23 26 29 31 35 38 42 45 47 48 49 50 52 53 54 54 53 53 52 50 48 46 44 43
19 18 17 17 18 18 18 18 18 18 17 17 16 15 15 16 16 16 17 18 17 17 19 19 17 19 23 21 18 20 22 22 22 23 24 24 25 26 26 26 26 26 24 23 22 20 18 18 19 20 21 21 22 23 24 24 23 22 20 19 20 22 24 26 29 32 36 40 43 46 47 49 50 51 52 53 54 54 53 52 51 49 47 44 43 43
19 18 17 17 17 17 17 16 16 16 16 15 15 16 16 16 16 17 17 17 17 19 20 18 18 22 24 21 20 22 23 24 24 25 25 25 25 25 25 24 23 22 20 18 17 17 18 19 20 20 20 21 22 23 23 23 21 20 19 20 21 23 25 27 30 34 38 42 44 46 48 49 51 52 53 53 53 53 52 51 50 48 45 43 42 43
17 16 16 16 16 17 16 16 16 15 15 15 16 16 15 16 16 17 17 18 19 19 19 19 21 24 23 21 22 24 24 24 24 23 23 23 23 22 22 20 18 16 15 15 16 18 19 19 20 20 21 22 23 23 22 21 19 18 19 20 22 23 25 28 32 36 39 42 45 47 48 50 51 52 53 53 52 52 51 50 49 46 43 42 42 43
15 14 14 14 15 15 15 15 14 15 15 16 16 16 16 16 17 17 18 19 20 19 19 21 22 23 22 21 21 21 21 20 20 20 20 20 19 18 17 15 14 14 15 17 18 18 19 19 20 21 22 23 22 21 20 19 18 18 19 21 22 24 26 29 33 37 41 43 45 47 48 50 51 52 52 52 52 52 51 50 48 44 42 41 41 43
17 15 13 13 12 12 12 11 11 12 12 12 13 13 14 14 15 15 16 17 17 17 17 18 18 17 17 16 16 16 16 16 15 16 15 15 15 14 13 14 15 16 17 18 18 18 19 20 21 22 22 22 20 19 18 18 18 19 20 21 22 25 27 31 35 38 41 43 45 47 49 50 51 51 52 52 52 52 51 49 46 43 41 40 41 43
18 17 16 14 13 12 11 10 9 9 9 9 9 9 9 9 9 10 11 11 11 11 11 11 11 10 10 11 11 11 11 11 11 12 12 13 13 13 15 16 16 17 17 17 18 19 20 21 22 22 21 20 18 18 17 17 18 19 20 21 23 26 29 32 36 39 41 43 45 47 49 50 50 51 52 52 52 52 51 48 44 41 39 40 41 43
17 16 15 14 13 12 11 10 9 8 8 7 7 6 6 6 6 6 6 6 6 6 6 6 6 6 7 7 8 9 9 9 11 13 14 14 14 15 16 16 16 16 16 17 18 19 20 21 21 20 19 18 18 17 17 17 18 19 20 21 24 27 30 33 36 39 41 43 46 48 49 49 50 51 52 53 53 52 49 46 42 40 39 40 42 43
15 14 14 13 12 11 10 9 8 7 6 5 4 3 3 2 3 3 4 4 5 6 6 6 7 7 8 9 10 11 11 11 14 15 14 14 14 14 14 14 15 15 16 17 19 20 21 21 20 18 18 17 17 16 16 17 18 18 20 23 26 28 30 33 36 39 41 44 46 47 49 49 50 51 53 53 52 50 48 44 41 39 39 41 42 43
14 14 13 12 11 10 9 8 7 6 5 4 2 2 0 1 2 4 5 5 6 8 9 9 9 9 10 11 12 12 12 13 15 15 13 13 15 14 14 14 15 15 17 18 19 20 20 19 18 17 17 17 16 15 16 16 17 19 22 24 26 28 31 33 36 39 42 44 46 47 48 49 50 52 52 52 51 49 46 43 40 39 40 41 42 43
12 12 11 11 11 10 9 8 7 6 5 3 2 1 0 2 2 4 6 6 6 8 10 10 10 10 11 12 13 12 13 14 15 15 13 14 15 14 14 15 15 16 18 19 20 20 19 18 17 16 16 15 14 14 15 16 18 20 22 24 26 28 31 34 37 40 42 44 46 47 48 49 50 51 51 51 50 47 44 41 40 39 40 41 42 43
8 9 9 9 9 8 8 7 6 5 4 3 2 1 1 2 3 4 6 6 6 8 9 10 10 11 12 13 13 13 13 13 14 15 15 15 15 15 15 16 17 18 19 20 20 20 18 17 16 15 14 14 13 13 14 16 18 20 22 25 27 29 31 34 37 40 43 44 45 46 47 49 49 50 49 49 48 45 43 40 39 39 40 41 43 44
6 6 6 6 6 6 5 5 5 5 5 5 4 4 4 4 5 6 7 8 8 9 9 10 11 11 12 13 13 14 14 14 14 16 16 16 16 17 17 17 18 19 20 21 20 19 18 16 15 14 13 12 12 12 14 16 18 20 23 26 28 29 31 34 37 40 43 44 44 45 47 48 48 48 48 47 45 43 41 40 39 39 40 42 43 44
4 4 4 5 5 6 5 5 5 6 6 7 7 7 7 8 8 8 9 10 10 11 11 12 12 12 13 13 14 14 15 15 15 15 16 16 17 18 18 18 19 19 20 20 19 18 17 15 14 13 12 11 11 12 14 17 19 21 24 26 28 30 31 33 37 40 42 43 44 45 46 46 46 47 46 45 43 42 40 39 39 39 40 42 43 44
6 6 5 5 6 6 7 8 8 8 9 10 10 10 11 11 11 11 11 11 12 13 14 14 14 14 14 14 14 15 15 15 16 16 16 16 16 17 18 19 19 20 20 19 18 17 16 14 13 12 12 11 11 13 15 17 19 22 24 27 29 31 31 33 37 40 42 43 43 44 45 45 45 45 44 43 41 40 39 38 38 39 41 42 43 44
9 8 8 8 8 8 9 9 9 10 11 12 13 13 13 14 14 13 13 13 14 15 15 16 16 16 16 16 16 16 16 17 17 17 16 16 16 16 17 18 20 20 20 19 18 16 15 14 13 12 12 11 11 13 16 18 20 23 25 28 30 31 31 32 36 39 41 42 43 44 44 44 44 44 43 42 40 39 38 37 38 39 41 42 43 44
12 11 11 12 12 11 12 12 11 10 11 13 13 15 16 16 16 16 16 16 16 16 17 17 17 17 17 18 18 17 18 18 18 17 17 16 16 16 17 18 20 20 20 18 17 16 15 14 13 13 12 11 12 14 16 19 21 23 26 29 30 31 31 32 35 38 40 42 43 43 43 43 43 43 43 41 39 38 37 37 38 39 41 42 43 44
15 15 14 15 15 14 15 16 15 14 12 12 13 15 18 19 18 18 18 19 19 19 19 18 18 18 19 19 19 19 19 19 19 18 18 17 16 16 17 18 19 20 19 18 17 16 15 14 14 13 12 12 13 15 17 19 21 24 27 29 31 31 32 32 34 38 39 41 42 42 42 42 43 43 42 41 39 37 37 37 38 39 41 42 43 43
19 19 18 19 19 17 17 20 22 19 14 13 15 17 18 19 19 18 19 21 21 22 21 20 20 20 20 20 21 20 20 21 20 20 19 18 17 16 17 18 19 19 19 18 17 16 15 15 14 14 13 13 13 15 17 19 22 24 27 29 31 32 33 33 35 38 40 41 41 41 41 41 42 42 42 40 39 37 37 38 39 40 41 42 42 43
22 23 24 25 23 20 20 25 28 25 18 17 19 20 19 19 19 19 20 22 23 23 23 22 21 21 21 22 22 22 22 22 22 21 21 20 18 17 17 19 19 19 18 18 17 16 16 16 15 15 14 14 14 15 17 19 22 25 28 30 31 33 34 34 35 38 40 42 42 42 41 41 41 41 41 40 39 38 38 38 39 40 41 42 42 42
27 28 30 29 27 24 26 30 32 29 24 23 23 23 22 21 20 21 21 22 23 23 23 22 22 22 23 24 24 24 23 23 23 23 23 22 20 18 18 19 20 19 19 18 17 17 17 16 16 16 15 15 15 16 17 20 22 25 28 30 32 33 34 35 36 38 40 42 43 43 42 41 41 41 41 40 39 38 38 39 39 40 41 41 42 42
30 31 32 32 30 28 29 32 33 30 28 27 26 25 24 22 21 21 21 22 22 22 21 21 22 23 24 25 25 25 25 25 25 25 25 25 23 20 19 20 20 20 19 19 18 18 18 17 17 17 17 17 16 16 18 20 22 25 28 30 32 34 35 36 37 38 40 42 43 44 43 42 41 41 40 40 39 39 39 39 40 41 41 41 41 41
Wind_Direction
193 194 196 197 199 201 203 204 206 207 208 209 212 214 215 214 214 213 213 214 215 216 216 215 215 215 216 217 218 220 223 225 226 227 228 230 231 232 231 232 234 236 236 233 234 240 243 242 241 237 237 244 253 264 275 283 287 290 292 295 298 300 302 304 305 306 307 307 306 306 307 308 309 310 312 314 315 316 317 317 317 317 318 318 318 317
192 193 194 195 197 199 201 204 206 207 208 209 210 211 212 213 213 213 215 215 216 217 218 219 218 217 216 217 218 219 221 225 227 228 229 231 232 232 231 232 237 241 236 230 232 237 239 238 235 235 240 249 260 271 280 286 289 292 295 296 299 301 303 304 305 305 306 305 305 306 308 310 311 313 315 316 316 316 316 317 317 317 318 318 318 317
191 191 191 193 195 196 198 201 205 207 208 210 210 210 211 212 213 213 213 214 216 219 220 221 221 219 217 217 217 217 219 223 225 227 229 231 232 231 233 236 241 243 234 227 230 234 235 234 233 237 244 255 266 276 283 288 291 292 295 298 300 302 302 303 304 304 304 305 306 308 310 313 314 315 316 317 316 316 317 318 318 319 319 318 317 317
189 189 189 191 192 193 194 197 203 206 207 209 209 209 209 210 212 213 213 213 214 217 220 222 222 221 218 218 216 215 217 220 223 229 232 232 233 231 235 239 240 239 230 223 227 231 232 231 233 239 248 259 270 281 287 289 290 292 296 298 299 300 301 302 304 304 305 307 309 311 313 315 315 316 316 316 316 317 318 319 318 317 316 316 316 317
187 187 188 189 189 190 192 195 200 203 205 207 207 207 209 209 210 212 213 214 215 217 220 221 222 222 220 220 219 216 217 220 223 230 232 231 232 233 236 238 237 233 224 219 224 228 228 229 233 242 253 265 277 284 286 287 290 294 296 297 298 300 302 303 304 306 307 309 311 313 314 315 315 315 315 316 316 317 318 317 316 315 316 317 317 318
184 185 187 187 187 189 192 194 197 201 204 205 204 205 208 208 207 209 211 214 216 217 218 221 223 224 223 223 223 221 221 225 227 231 235 232 231 234 235 233 233 229 219 218 224 225 225 229 236 248 260 271 279 283 286 289 293 295 295 297 299 301 303 304 305 307 308 311 312 314 314 315 315 315 315 316 317 317 317 316 316 317 318 318 319 319
182 183 184 185 186 188 190 193 196 199 200 201 201 202 206 207 206 206 209 213 215 215 216 218 221 222 223 225 226 225 226 227 227 235 241 234 231 233 230 228 228 224 218 220 224 222 225 233 243 255 265 273 280 285 289 291 292 294 295 298 301 302 304 305 306 308 310 312 313 314 314 314 314 315 316 317 317 317 317 317 318 318 319 319 320 320
181 182 183 185 186 187 189 191 193 196 197 198 198 200 203 206 204 203 206 210 213 215 215 216 217 219 221 224 228 229 229 233 237 244 242 231 231 231 223 219 219 216 217 220 220 222 229 240 250 260 270 277 283 287 288 290 292 295 297 300 302 303 304 305 307 309 311 312 313 313 313 313 315 316 317 317 316 317 318 318 319 320 321 321 321 321
180 182 183 184 185 185 187 189 190 191 192 194 195 196 199 202 203 205 207 209 211 214 215 216 216 218 218 219 227 230 229 235 237 234 225 217 221 218 207 207 210 211 215 217 218 226 236 246 255 266 275 281 284 285 287 291 294 296 298 300 301 303 304 306 309 311 311 312 312 312 313 314 316 316 316 316 317 318 319 319 320 321 322 322 321 320
179 181 182 183 184 183 184 186 187 186 187 190 192 191 194 198 202 207 210 211 212 214 216 217 217 218 214 212 220 224 221 218 200 181 185 191 197 198 200 208 212 212 213 214 221 231 240 250 261 271 278 281 284 287 290 293 294 296 299 300 302 304 306 308 310 311 311 311 311 313 314 315 316 316 316 317 318 319 320 321 322 323 322 321 320 320
179 180 180 181 181 182 182 183 184 183 184 186 188 188 191 196 201 207 211 213 214 215 217 219 219 220 216 212 213 208 199 193 176 160 167 182 198 204 208 212 212 210 210 216 226 235 246 258 267 275 280 284 288 291 293 294 296 298 300 301 304 306 308 309 310 310 310 311 313 314 315 316 316 317 318 319 319 321 322 323 323 322 322 321 321 321
178 178 178 179 180 180 181 181 183 183 182 183 185 188 191 195 199 205 210 214 217 219 220 221 222 223 221 217 215 208 197 194 199 214 234 241 234 221 211 208 207 206 211 221 231 242 256 266 273 279 284 288 291 292 294 296 298 300 302 304 306 308 309 309 309 309 311 313 314 315 316 316 317 318 319 320 322 324 324 324 323 322 323 323 323 323
177 176 177 178 178 180 180 180 181 182 183 184 185 187 190 192 196 200 206 212 217 220 221 223 226 227 227 224 222 221 220 225 236 247 252 251 245 232 217 208 206 208 217 229 240 251 262 271 278 283 287 289 291 293 295 297 299 301 304 306 307 308 308 307 308 310 313 314 315 316 317 318 318 319 321 323 324 325 324 324 324 325 325 325 324 324
175 175 177 177 177 179 179 180 181 181 183 184 184 185 185 188 193 196 201 207 213 219 220 223 226 227 228 229 227 229 233 238 244 249 251 249 243 232 218 209 211 217 226 237 248 258 267 275 282 286 288 290 292 294 296 298 301 304 305 306 306 306 306 308 310 313 314 315 316 317 318 318 319 321 324 325 325 325 325 326 327 327 327 326 325 323
175 175 175 176 176 177 178 179 181 182 183 183 183 185 184 185 188 192 198 203 207 212 214 217 223 226 228 228 226 228 233 238 242 246 248 244 234 223 215 214 218 225 234 244 254 264 273 280 284 287 289 291 293 295 298 301 303 304 305 304 304 305 307 310 313 314 315 316 317 318 318 319 322 324 326 326 326 327 328 329 329 329 328 326 324 323
175 175 174 174 175 176 177 178 180 183 184 184 184 185 185 185 183 183 186 187 189 198 205 211 217 222 224 223 219 222 227 231 233 236 235 227 218 214 214 218 224 233 242 252 263 272 279 283 286 289 291 293 296 298 300 302 302 302 302 302 304 307 310 313 314 315 316 317 317 318 320 323 325 327 327 328 329 331 331 331 331 329 327 324 324 324
173 175 174 174 175 176 177 177 178 181 184 186 186 184 184 183 181 178 175 175 182 189 194 200 207 211 212 211 211 212 214 214 214 213 210 206 206 209 215 223 233 243 254 264 273 279 284 287 289 292 293 295 297 299 300 300 299 299 300 303 307 310 313 314 315 316 317 317 318 320 323 326 328 329 330 332 333 333 333 332 330 328 326 325 325 327
173 175 174 173 175 176 176 176 176 178 182 186 186 182 182 184 183 180 177 179 183 181 179 184 189 192 194 194 195 195 194 195 194 195 197 200 206 213 223 234 246 257 267 274 280 283 287 289 290 292 293 295 296 297 297 297 298 300 303 307 311 313 314 315 316 317 317 318 320 324 327 328 330 332 334 335 335 335 334 332 329 327 326 326 327 328
173 176 175 174 175 176 177 178 177 178 180 183 184 184 186 187 185 184 183 185 182 175 172 175 174 178 181 179 180 183 184 187 190 195 201 208 217 227 237 249 258 267 273 278 282 284 286 287 288 290 292 293 294 294 295 297 300 304 308 311 313 314 315 316 316 316 317 320 324 327 329 331 334 335 336 336 336 335 333 331 329 327 327 328 328 329
173 176 177 175 175 177 178 179 179 179 179 179 184 188 189 188 187 187 188 189 184 178 177 177 175 178 178 179 182 185 189 195 200 206 215 222 232 241 249 258 264 270 274 278 280 281 283 284 286 289 290 291 293 295 297 300 304 308 311 313 314 315 315 315 315 317 320 324 327 330 332 335 336 337 338 338 337 335 332 330 328 328 328 329 330 330
171 175 179 177 176 178 180 181 182 182 179 179 184 189 188 187 188 189 190 191 188 185 186 187 185 184 183 187 194 197 202 209 214 221 229 236 244 250 256 262 266 270 273 275 277 279 282 285 287 289 290 292 295 298 301 304 308 311 312 313 314 314 314 315 317 320 324 327 330 333 335 337 338 339 340 339 336 334 331 329 328 328 329 331 332 331
169 173 181 182 179 179 181 182 184 185 184 184 185 187 188 189 191 192 192 192 191 189 193 196 193 192 195 199 205 210 215 222 227 232 238 244 251 256 260 264 267 270 272 275 278 282 285 286 288 290 292 295 298 301 304 307 310 312 313 312 312 312 314 316 319 323 327 330 333 336 337 339 340 341 340 338 335 332 330 329 328 329 331 333 332 331
167 169 177 183 182 181 182 184 185 187 189 189 187 187 189 192 195 196 196 196 195 194 200 202 198 200 208 211 214 220 226 231 237 242 247 252 256 260 264 267 270 273 276 279 282 284 285 287 289 292 295 297 300 304 306 309 310 311 311 310 311 313 315 318 322 326 329 333 335 337 339 341 342 341 339 336 334 331 329 329 329 331 333 333 332 331
166 165 169 178 182 182 184 187 188 188 191 193 193 192 193 196 199 200 200 201 202 202 207 209 206 208 216 221 223 228 234 239 244 249 252 256 260 263 267 270 273 276 279 281 282 284 286 288 291 294 297 300 303 305 307 309 309 309 308 310 312 314 317 320 325 328 331 334 336 339 342 343 342 340 338 335 333 330 329 329 331 333 334 333 332 331
165 164 165 172 179 180 184 188 190 191 193 195 198 200 200 202 205 205 206 208 209 210 213 216 215 217 223 229 232 235 239 243 247 251 255 259 263 266 269 272 274 276 278 280 282 284 287 289 292 296 298 301 303 305 307 307 307 307 308 310 313 315 319 323 327 330 333 336 339 342 344 344 342 339 337 335 332 330 330 331 332 334 334 333 333 332
165 166 166 169 173 177 180 184 187 191 194 195 198 202 204 206 209 210 213 215 217 219 221 224 225 226 230 235 237 240 244 247 251 254 257 261 264 266 269 271 273 275 277 280 282 285 288 291 294 296 299 301 303 305 305 305 305 307 309 311 314 317 320 324 328 331 335 338 342 345 345 343 341 339 337 334 332 331 330 331 333 334 334 334 333 332
162 167 168 168 169 172 177 181 185 189 192 195 199 202 205 208 210 213 216 217 220 225 227 229 232 230 233 239 242 244 247 250 253 256 258 261 263 266 268 270 272 275 277 280 283 286 289 291 294 296 299 301 302 302 303 304 305 308 310 313 315 317 321 325 330 334 337 341 345 346 345 343 342 339 337 335 333 331 330 332 334 334 334 334 334 333
157 163 167 168 167 168 171 177 183 187 190 194 200 203 206 210 212 215 217 217 220 225 226 230 234 234 236 241 244 246 249 251 254 256 258 261 263 265 267 270 272 275 278 281 284 287 289 291 294 297 298 299 300 300 302 304 306 309 311 312 313 317 323 328 332 336 340 344 346 346 345 344 342 340 338 335 333 331 331 333 334 335 335 335 334 334
155 159 165 168 168 168 169 173 179 184 188 194 199 203 208 212 214 217 219 220 224 227 227 230 236 237 239 242 244 246 249 252 253 255 257 260 262 264 267 270 273 276 279 282 285 287 289 292 295 296 296 298 299 301 303 305 307 309 310 310 314 320 325 330 334 339 344 347 347 347 346 344 343 341 339 336 332 330 331 334 335 336 336 335 335 336
154 157 165 170 170 171 171 173 177 182 186 192 197 202 207 210 213 216 219 223 226 228 227 229 233 237 241 243 244 244 248 251 253 255 257 260 263 266 269 273 275 278 280 282 285 287 289 291 293 294 296 297 299 301 303 305 307 307 307 311 318 323 327 332 338 343 347 348 348 348 347 345 344 342 339 335 331 331 333 335 336 336 336 336 337 337
156 159 166 173 174 174 174 176 179 182 186 192 196 200 205 209 212 215 219 223 225 226 229 233 235 239 242 245 245 245 248 251 254 257 260 264 267 269 271 273 275 278 280 282 284 285 287 290 292 294 296 297 299 302 303 305 305 306 310 316 321 325 331 337 343 347 349 349 349 349 348 347 345 342 339 334 331 332 334 335 336 336 337 338 338 338
159 161 167 175 180 181 180 181 183 185 189 193 197 202 205 208 212 216 220 225 227 229 233 237 238 241 246 250 250 251 252 255 258 261 264 266 267 268 269 271 274 277 279 280 281 284 288 292 293 294 295 297 300 302 303 304 306 309 316 321 323 328 335 342 347 350 350 350 350 350 349 347 345 342 338 333 332 333 335 336 337 337 338 339 339 338
151 157 166 176 183 187 189 191 193 194 198 202 207 211 213 216 221 224 227 231 235 239 243 244 245 251 257 258 256 256 257 259 261 263 264 265 266 267 268 271 273 276 278 281 286 291 293 294 293 294 295 298 301 302 304 307 311 317 321 323 326 332 340 346 350 351 351 351 351 350 350 348 345 341 336 333 333 335 336 337 338 339 339 340 339 339
131 143 155 166 176 183 188 194 199 202 207 214 219 223 225 228 231 234 237 240 244 248 248 248 250 254 257 257 257 258 259 260 261 262 263 264 265 267 269 273 277 282 286 290 294 295 294 293 293 294 297 300 302 303 307 313 319 323 324 324 328 336 344 349 351 351 351 352 351 351 350 348 345 340 335 333 334 336 337 338 339 339 340 340 339 338
108 117 127 138 149 158 166 175 183 190 199 209 216 219 223 228 232 235 238 242 245 246 246 247 250 253 254 256 257 257 257 257 259 260 262 264 267 272 279 285 289 293 295 296 296 294 293 293 294 296 299 301 303 307 313 319 323 324 324 326 333 341 347 350 351 351 352 352 351 351 350 347 343 339 336 335 336 337 338 338 339 340 340 340 339 339
101 103 107 111 116 123 131 138 147 157 167 177 185 193 201 209 215 222 230 236 239 241 245 249 251 253 254 254 254 255 256 258 261 264 269 274 281 288 292 294 296 297 297 296 294 293 293 294 296 299 302 304 307 314 320 323 324 324 325 331 338 344 348 350 351 351 351 352 352 351 349 346 343 339 337 337 337 338 338 339 340 340 340 339 339 339
96 99 101 104 105 106 110 113 118 126 136 143 152 161 169 177 189 202 213 219 225 232 236 239 242 244 247 251 255 258 262 268 273 277 282 289 294 294 294 296 297 296 295 294 293 293 294 296 300 304 305 308 314 320 323 323 324 325 329 336 342 345 348 350 351 351 352 352 352 351 349 346 343 340 339 338 338 338 339 340 340 340 340 340 340 340
90 92 95 98 100 100 102 102 102 107 112 113 122 136 153 181 206 229 242 241 244 251 252 251 253 255 259 264 267 269 274 277 277 281 289 293 292 293 295 296 295 294 293 293 293 294 297 301 305 307 309 314 319 321 322 323 324 328 333 339 343 345 348 350 351 352 353 353 352 352 350 347 344 341 339 338 338 339 339 340 340 340 340 340 341 341
86 88 89 92 94 95 96 95 95 97 96 91 90 90 38 272 273 277 276 272 267 269 270 269 266 268 270 272 274 276 279 277 278 287 296 293 291 296 298 296 295 295 295 295 296 298 302 305 307 308 311 316 317 318 320 323 326 331 336 340 344 346 349 351 352 354 354 354 354 353 351 348 345 342 339 338 338 339 340 340 340 340 341 341 341 341
77 79 81 84 86 86 87 89 91 94 90 84 89 93 259 267 271 274 276 277 271 268 271 272 272 273 273 275 278 280 279 279 285 294 298 295 297 302 301 299 300 299 297 298 299 300 303 304 305 308 311 312 313 315 319 323 328 333 338 343 346 347 349 351 353 354 354 354 355 354 352 350 346 341 338 338 339 339 340 340 340 340 341 341 341 341
67 69 69 69 70 72 72 72 71 70 60 48 39 27 344 296 280 275 280 286 283 277 278 280 281 280 280 281 284 286 287 290 293 297 301 302 303 304 304 303 302 300 299 299 298 299 300 300 302 304 306 307 309 313 319 325 330 336 341 345 347 348 350 352 354 355 354 355 355 355 353 350 346 341 338 338 339 340 340 341 341 341 341 341 341 341
50 52 52 48 45 46 48 44 39 29 12 0 350 343 334 318 305 297 295 297 297 295 294 294 293 293 293 294 295 297 299 301 301 302 305 306 305 305 305 304 300 298 297 296 295 295 295 295 298 300 300 301 306 313 320 326 332 338 344 346 347 348 350 353 354 355 355 355 355 355 353 350 345 340 339 339 339 340 341 340 341 341 341 341 341 341
11 14 17 17 13 6 359 356 356 350 341 334 328 323 320 317 313 309 306 304 303 301 300 299 299 299 299 300 302 302 303 305 305 305 306 306 306 306 304 301 297 294 293 292 292 291 290 291 294 294 294 296 304 314 321 326 333 340 344 346 347 349 350 352 354 355 354 354 354 354 352 349 344 340 339 339 340 340 340 341 341 341 341 341 341 341
329 332 339 342 340 337 334 330 328 327 325 321 316 313 311 310 310 309 306 304 303 302 302 302 302 302 301 300 301 301 302 304 305 305 307 307 306 305 303 299 294 290 288 288 287 286 287 288 289 288 288 293 305 315 320 325 334 341 344 346 348 348 348 350 353 353 353 354 354 353 350 347 344 341 339 340 340 340 340 341 341 341 341 341 341 342
308 313 317 314 315 319 315 310 313 317 314 309 308 306 304 301 302 303 302 300 300 299 300 302 303 302 301 301 300 301 302 303 303 305 306 307 306 305 303 298 292 288 285 283 282 282 283 284 283 282 283 292 305 313 318 326 335 341 344 346 347 345 345 348 350 351 352 354 353 351 349 347 344 341 340 340 340 340 340 341 341 341 341 341 342 343
294 297 299 300 303 304 300 300 305 305 303 306 306 303 299 297 298 299 297 296 295 295 295 296 296 297 297 297 298 300 301 301 302 303 303 304 306 306 302 295 291 287 283 280 279 279 278 278 277 277 281 292 304 310 317 327 335 341 344 345 344 343 344 346 347 347 350 353 353 351 349 347 344 342 341 340 340 340 340 341 341 341 342 342 343 343
286 288 290 291 291 293 296 297 295 293 299 306 302 296 296 297 299 299 297 295 293 292 291 291 292 293 293 294 295 297 299 300 301 301 300 301 303 305 302 294 288 283 280 277 276 275 274 273 272 274 279 289 299 307 317 328 335 340 343 343 342 341 343 344 344 344 347 350 352 351 349 347 345 343 342 341 340 340 341 341 341 341 342 343 343 344
286 287 286 284 285 290 294 291 288 291 299 301 294 293 297 299 299 299 297 295 293 291 290 290 290 290 290 290 291 293 296 299 300 300 300 300 301 302 300 293 285 280 276 274 273 272 270 269 269 272 277 285 295 305 316 326 333 339 341 340 340 341 341 341 341 341 343 346 349 349 348 347 345 344 343 341 340 340 341 341 341 341 342 343 344 344
285 284 283 284 288 293 290 285 286 292 295 291 288 291 295 297 297 296 294 293 293 292 291 290 289 287 286 286 287 290 293 296 299 300 300 300 299 299 297 293 285 277 272 270 270 268 266 266 268 270 274 282 292 302 313 323 330 336 338 338 338 339 340 340 339 339 341 344 346 347 347 345 344 344 344 342 341 341 341 341 341 341 342 343 344 345
282 281 283 286 290 290 285 284 287 291 291 288 287 289 290 292 293 293 292 293 293 293 293 291 287 285 284 284 285 288 291 293 295 297 298 299 299 299 296 292 285 276 270 267 264 263 263 265 267 268 272 279 288 298 309 319 326 332 335 336 337 338 338 338 338 338 340 342 344 345 345 344 344 344 344 342 341 342 342 341 341 341 342 343 344 345
279 281 284 286 286 285 283 284 288 290 290 288 287 286 287 288 289 289 290 291 292 292 291 290 287 285 284 284 285 287 288 290 292 294 296 297 299 299 295 292 286 276 267 263 261 260 261 264 265 266 270 276 285 295 305 314 322 328 331 333 335 336 337 337 337 338 339 341 343 344 344 343 343 343 343 342 342 342 342 342 341 342 342 343 344 345
Height
5685 5690 5695 5701 5706 5712 5717 5722 5726 5730 5733 5737 5742 5747 5751 5755 5759 5763 5765 5768 5771 5774 5777 5780 5783 5785 5788 5791 5793 5795 5798 5800 5802 5804 5806 5808 5810 5812 5814 5816 5818 5820 5822 5824 5825 5826 5827 5828 5829 5830 5831 5831 5832 5832 5832 5831 5830 5829 5828 5827 5826 5825 5824 5823 5821 5819 5817 5816 5814 5812 5810 5808 5805 5803 5800 5797 5794 5790 5785 5781 5778 5775 5772 5768 5764 5760
5683 5688 5694 5701 5706 5712 5717 5722 5725 5728 5731 5736 5741 5746 5750 5754 5758 5762 5765 5768 5771 5773 5776 5779 5781 5783 5786 5789 5791 5794 5796 5799 5800 5802 5805 5807 5808 5810 5813 5815 5817 5819 5821 5822 5823 5825 5826 5827 5828 5829 5829 5830 5830 5830 5830 5829 5828 5827 5826 5825 5824 5823 5822 5820 5819 5817 5815 5813 5811 5809 5807 5804 5801 5799 5796 5792 5789 5786 5782 5778 5773 5771 5767 5764 5759 5755
5682 5688 5695 5701 5706 5712 5717 5721 5723 5726 5731 5737 5741 5745 5749 5753 5757 5760 5763 5766 5770 5773 5775 5777 5779 5782 5784 5787 5790 5792 5795 5797 5799 5801 5803 5805 5807 5809 5811 5813 5815 5817 5818 5820 5822 5823 5824 5825 5826 5827 5828 5828 5829 5829 5828 5827 5826 5825 5824 5823 5822 5821 5819 5818 5816 5815 5813 5811 5808 5806 5803 5800 5797 5794 5792 5788 5784 5781 5779 5774 5769 5765 5762 5758 5755 5751
5682 5690 5696 5701 5707 5712 5716 5719 5722 5725 5731 5736 5740 5744 5748 5752 5756 5759 5762 5765 5768 5771 5774 5776 5778 5780 5783 5785 5788 5791 5793 5795 5797 5799 5802 5804 5806 5808 5810 5811 5813 5814 5816 5818 5820 5821 5823 5824 5825 5826 5827 5827 5827 5827 5826 5825 5824 5823 5822 5821 5820 5819 5817 5816 5814 5812 5810 5808 5805 5802 5800 5797 5794 5791 5788 5785 5781 5778 5775 5771 5767 5762 5759 5755 5751 5747
5684 5691 5696 5701 5707 5711 5714 5717 5720 5725 5730 5734 5739 5744 5747 5750 5754 5757 5761 5764 5767 5770 5772 5774 5777 5779 5782 5784 5787 5790 5792 5794 5796 5797 5800 5802 5804 5806 5808 5809 5811 5813 5815 5817 5818 5820 5821 5823 5824 5825 5825 5826 5825 5825 5824 5823 5822 5821 5820 5819 5818 5816 5815 5813 5811 5809 5807 5805 5802 5799 5796 5793 5790 5787 5784 5781 5778 5775 5772 5768 5764 5759 5755 5751 5747 5743
5684 5690 5696 5701 5706 5709 5713 5716 5720 5726 5730 5734 5739 5743 5746 5749 5752 5756 5759 5763 5765 5768 5771 5773 5776 5778 5781 5784 5786 5788 5791 5792 5794 5796 5797 5800 5802 5804 5806 5808 5809 5811 5813 5815 5817 5819 5820 5822 5823 5824 5824 5824 5823 5823 5822 5821 5820 5819 5818 5817 5815 5814 5812 5810 5809 5806 5804 5802 5799 5796 5793 5790 5787 5784 5781 5778 5774 5770 5767 5763 5759 5755 5750 5746 5742 5738
5685 5690 5696 5701 5704 5708 5712 5717 5721 5726 5730 5735 5739 5742 5745 5748 5751 5754 5758 5761 5763 5766 5769 5772 5774 5777 5780 5783 5785 5787 5789 5791 5793 5794 5796 5798 5800 5802 5804 5806 5808 5810 5812 5814 5816 5818 5819 5821 5821 5822 5822 5822 5822 5821 5820 5819 5818 5817 5815 5814 5813 5811 5810 5808 5806 5804 5801 5799 5796 5793 5790 5787 5784 5780 5777 5774 5770 5766 5762 5758 5754 5751 5747 5742 5738 5734
5685 5690 5695 5699 5703 5708 5713 5717 5722 5726 5731 5735 5738 5741 5745 5748 5750 5753 5756 5759 5762 5765 5768 5770 5772 5776 5779 5782 5784 5786 5788 5790 5792 5793 5794 5796 5798 5799 5802 5804 5806 5809 5812 5814 5815 5817 5818 5819 5820 5820 5821 5820 5820 5819 5818 5817 5815 5814 5813 5812 5810 5809 5807 5805 5803 5801 5798 5796 5793 5790 5787 5784 5781 5777 5773 5769 5765 5761 5758 5754 5750 5747 5744 5739 5734 5730
5685 5691 5695 5699 5704 5709 5714 5719 5723 5728 5732 5735 5737 5742 5744 5747 5750 5752 5755 5759 5761 5764 5766 5769 5771 5774 5778 5781 5783 5785 5788 5790 5791 5791 5792 5795 5797 5799 5801 5804 5807 5809 5811 5813 5815 5816 5817 5818 5818 5819 5819 5818 5818 5817 5815 5814 5813 5812 5811 5810 5808 5807 5805 5803 5801 5798 5795 5793 5790 5787 5784 5780 5777 5773 5770 5766 5761 5758 5754 5751 5747 5743 5739 5735 5731 5727
5686 5691 5696 5701 5707 5711 5715 5720 5724 5728 5731 5734 5738 5742 5743 5746 5750 5753 5756 5758 5761 5763 5766 5768 5771 5773 5777 5780 5782 5784 5787 5789 5790 5791 5793 5795 5798 5800 5802 5804 5806 5808 5810 5812 5814 5815 5816 5817 5817 5817 5816 5816 5815 5814 5813 5812 5811 5810 5809 5807 5806 5804 5802 5800 5797 5795 5792 5790 5787 5784 5780 5777 5773 5769 5765 5762 5758 5754 5751 5747 5743 5740 5736 5732 5727 5723
5687 5692 5698 5703 5708 5712 5716 5720 5724 5727 5731 5735 5738 5741 5743 5747 5750 5752 5755 5758 5760 5763 5765 5768 5770 5773 5776 5778 5781 5784 5785 5788 5790 5792 5794 5797 5799 5800 5802 5804 5806 5808 5809 5811 5812 5814 5815 5815 5815 5815 5814 5813 5813 5812 5811 5810 5809 5808 5806 5805 5803 5801 5799 5797 5794 5792 5789 5786 5783 5780 5776 5772 5769 5765 5761 5758 5754 5751 5747 5743 5739 5736 5732 5727 5723 5718
5688 5694 5699 5704 5708 5712 5716 5720 5724 5727 5731 5735 5738 5741 5744 5747 5750 5753 5756 5758 5761 5763 5765 5768 5770 5773 5775 5778 5781 5783 5785 5787 5789 5791 5794 5797 5799 5800 5802 5804 5805 5807 5809 5810 5811 5812 5813 5813 5813 5812 5812 5811 5810 5809 5808 5807 5806 5805 5804 5802 5800 5798 5796 5794 5791 5789 5786 5783 5779 5776 5772 5768 5765 5761 5758 5754 5751 5748 5744 5740 5736 5732 5727 5723 5718 5713
5689 5694 5699 5704 5708 5713 5716 5720 5724 5728 5732 5735 5738 5742 5745 5748 5750 5753 5755 5758 5760 5763 5765 5768 5770 5773 5775 5778 5781 5783 5785 5787 5788 5791 5794 5796 5798 5800 5801 5803 5804 5806 5807 5809 5810 5811 5811 5811 5811 5810 5810 5809 5808 5807 5806 5805 5804 5802 5801 5799 5797 5795 5793 5791 5788 5785 5782 5779 5775 5772 5768 5765 5761 5758 5755 5751 5748 5744 5741 5737 5732 5728 5723 5718 5713 5708
5689 5694 5699 5704 5709 5713 5718 5722 5725 5729 5733 5736 5739 5742 5745 5748 5751 5753 5755 5758 5760 5763 5766 5768 5770 5772 5774 5777 5781 5784 5785 5786 5788 5790 5793 5795 5797 5799 5800 5802 5803 5805 5806 5807 5808 5809 5809 5809 5809 5808 5807 5806 5805 5805 5804 5803 5801 5800 5798 5796 5794 5792 5790 5788 5785 5782 5779 5775 5771 5768 5764 5761 5758 5755 5752 5749 5745 5741 5737 5733 5728 5723 5718 5713 5708 5704
5690 5694 5699 5705 5710 5714 5719 5723 5727 5730 5734 5737 5740 5743 5745 5748 5751 5754 5756 5759 5761 5764 5766 5768 5769 5771 5773 5777 5780 5782 5783 5785 5787 5789 5791 5794 5796 5797 5799 5800 5802 5803 5805 5806 5806 5807 5807 5807 5806 5805 5805 5804 5803 5802 5801 5800 5799 5797 5796 5794 5792 5790 5787 5785 5782 5778 5775 5771 5768 5764 5761 5759 5756 5753 5749 5746 5742 5738 5733 5729 5723 5718 5713 5709 5704 5699
5693 5698 5702 5707 5712 5716 5720 5724 5728 5732 5735 5738 5741 5744 5747 5749 5752 5755 5757 5759 5761 5763 5765 5767 5769 5771 5773 5776 5778 5780 5782 5785 5787 5788 5790 5792 5794 5796 5797 5799 5801 5802 5803 5804 5804 5804 5804 5804 5803 5803 5802 5801 5801 5800 5799 5797 5796 5795 5793 5791 5789 5787 5784 5781 5778 5774 5771 5768 5765 5762 5759 5756 5753 5750 5746 5742 5738 5734 5729 5724 5719 5714 5709 5704 5699 5694
5696 5701 5705 5709 5714 5717 5721 5725 5729 5733 5736 5739 5742 5745 5748 5751 5753 5755 5757 5759 5760 5762 5764 5766 5768 5770 5772 5775 5777 5779 5781 5783 5785 5787 5789 5791 5793 5795 5797 5798 5799 5800 5801 5802 5802 5801 5801 5801 5800 5800 5799 5799 5798 5797 5796 5795 5794 5792 5790 5788 5786 5783 5780 5777 5774 5770 5767 5765 5762 5759 5756 5753 5750 5747 5743 5739 5734 5730 5725 5720 5715 5710 5704 5699 5695 5690
5700 5703 5707 5711 5715 5719 5723 5726 5730 5733 5737 5740 5743 5746 5749 5751 5753 5755 5757 5758 5760 5762 5764 5766 5768 5770 5772 5774 5776 5778 5781 5783 5785 5787 5789 5791 5792 5794 5796 5797 5797 5798 5798 5799 5799 5799 5798 5798 5798 5798 5797 5797 5796 5795 5794 5792 5791 5789 5787 5784 5782 5779 5776 5773 5770 5767 5765 5762 5759 5757 5754 5751 5747 5743 5739 5735 5731 5726 5721 5715 5710 5705 5700 5695 5691 5687
5703 5706 5710 5713 5717 5720 5724 5727 5731 5734 5737 5741 5744 5747 5749 5751 5753 5755 5757 5759 5761 5763 5765 5766 5768 5770 5772 5774 5776 5778 5780 5782 5784 5786 5788 5790 5792 5793 5794 5795 5795 5796 5796 5796 5796 5797 5797 5797 5796 5796 5796 5795 5794 5792 5791 5789 5787 5785 5783 5781 5778 5775 5772 5770 5767 5765 5762 5760 5757 5754 5751 5748 5744 5740 5736 5731 5727 5722 5717 5711 5706 5701 5697 5692 5688 5684
5704 5708 5712 5715 5719 5722 5725 5729 5732 5735 5738 5742 5744 5747 5749 5751 5754 5756 5758 5760 5762 5764 5766 5767 5769 5770 5772 5775 5776 5778 5780 5782 5784 5786 5787 5789 5790 5791 5792 5793 5794 5794 5794 5795 5795 5795 5795 5795 5795 5794 5793 5792 5790 5789 5787 5785 5784 5782 5779 5777 5774 5771 5769 5767 5765 5762 5760 5757 5755 5752 5748 5745 5741 5737 5732 5728 5723 5718 5713 5707 5702 5698 5693 5689 5685 5680
5706 5711 5714 5717 5720 5724 5727 5730 5733 5736 5739 5742 5744 5747 5750 5752 5754 5756 5758 5760 5762 5765 5766 5768 5770 5771 5773 5775 5777 5778 5780 5782 5784 5785 5787 5788 5789 5790 5791 5792 5792 5793 5793 5793 5793 5793 5793 5793 5792 5791 5790 5788 5787 5785 5784 5782 5780 5778 5776 5773 5771 5769 5767 5764 5762 5760 5757 5755 5752 5749 5745 5742 5738 5733 5729 5724 5719 5714 5709 5704 5699 5694 5690 5685 5681 5676
5707 5712 5716 5719 5721 5725 5729 5732 5735 5738 5741 5742 5745 5748 5751 5753 5755 5757 5758 5760 5763 5765 5766 5768 5770 5772 5773 5775 5776 5778 5780 5781 5783 5784 5785 5787 5788 5789 5789 5790 5791 5791 5791 5791 5791 5791 5790 5789 5788 5787 5786 5785 5784 5782 5781 5779 5777 5775 5772 5770 5768 5766 5764 5762 5760 5757 5755 5752 5749 5746 5742 5739 5734 5730 5725 5721 5716 5710 5705 5700 5696 5691 5686 5682 5677 5673
5709 5712 5717 5721 5724 5727 5730 5733 5736 5739 5741 5744 5746 5749 5751 5753 5755 5757 5759 5761 5763 5765 5766 5768 5770 5772 5773 5774 5776 5777 5779 5780 5781 5783 5784 5785 5786 5787 5787 5788 5788 5788 5788 5788 5788 5788 5787 5786 5785 5784 5783 5782 5781 5779 5778 5776 5774 5772 5770 5768 5766 5764 5762 5759 5757 5755 5752 5749 5746 5743 5739 5735 5731 5727 5722 5717 5712 5707 5702 5697 5692 5687 5683 5678 5674 5669
5711 5715 5718 5723 5727 5729 5732 5734 5737 5739 5742 5745 5747 5749 5751 5753 5755 5758 5760 5762 5763 5765 5766 5768 5770 5771 5772 5774 5775 5777 5778 5779 5781 5782 5783 5783 5784 5785 5785 5785 5785 5786 5785 5785 5785 5784 5784 5783 5782 5782 5781 5779 5778 5776 5774 5773 5771 5769 5767 5765 5763 5761 5759 5757 5755 5752 5750 5747 5744 5740 5736 5732 5728 5724 5719 5714 5709 5704 5699 5693 5688 5684 5679 5675 5670 5666
5714 5717 5719 5723 5727 5730 5733 5736 5738 5741 5743 5745 5748 5750 5752 5754 5756 5758 5760 5761 5763 5765 5766 5768 5769 5771 5772 5773 5775 5776 5777 5778 5779 5780 5781 5782 5782 5783 5783 5783 5783 5783 5782 5782 5782 5782 5781 5781 5780 5779 5778 5776 5775 5773 5771 5770 5768 5766 5765 5763 5761 5759 5757 5755 5753 5750 5748 5745 5741 5737 5733 5729 5725 5720 5716 5711 5705 5700 5695 5690 5685 5681 5676 5671 5667 5663
5717 5719 5721 5724 5727 5730 5733 5736 5739 5741 5743 5746 5748 5750 5752 5754 5756 5757 5759 5761 5763 5764 5766 5767 5769 5770 5771 5772 5774 5775 5776 5777 5778 5778 5779 5779 5780 5780 5780 5780 5780 5780 5780 5780 5780 5779 5779 5778 5777 5776 5775 5773 5772 5770 5769 5767 5766 5764 5762 5760 5758 5756 5754 5753 5750 5748 5745 5742 5738 5734 5730 5726 5722 5717 5712 5707 5702 5697 5691 5687 5682 5677 5673 5668 5664 5659
5719 5722 5724 5726 5729 5731 5734 5737 5739 5741 5744 5746 5748 5749 5751 5753 5755 5757 5758 5760 5762 5763 5765 5766 5768 5769 5770 5771 5772 5773 5774 5775 5775 5776 5776 5777 5777 5777 5777 5777 5777 5777 5778 5778 5777 5777 5776 5775 5774 5773 5772 5770 5769 5768 5766 5765 5763 5761 5760 5758 5756 5754 5752 5751 5748 5746 5742 5739 5735 5731 5728 5724 5719 5714 5709 5704 5699 5693 5688 5683 5679 5674 5670 5665 5661 5656
5721 5724 5727 5729 5731 5733 5735 5738 5740 5742 5744 5746 5748 5749 5751 5753 5755 5756 5758 5760 5761 5762 5764 5765 5766 5767 5768 5769 5770 5771 5771 5772 5773 5773 5773 5774 5774 5775 5775 5775 5775 5775 5775 5775 5775 5774 5773 5772 5771 5770 5769 5768 5766 5765 5764 5762 5760 5759 5757 5755 5754 5752 5751 5748 5746 5743 5740 5736 5733 5729 5725 5721 5716 5711 5706 5701 5695 5690 5685 5680 5675 5671 5667 5662 5658 5653
5724 5726 5728 5731 5732 5734 5736 5738 5740 5742 5744 5746 5748 5749 5751 5752 5754 5755 5757 5759 5760 5761 5763 5763 5764 5765 5766 5766 5767 5768 5769 5769 5770 5770 5771 5771 5772 5772 5773 5773 5773 5773 5773 5772 5772 5771 5770 5769 5768 5767 5766 5765 5763 5762 5761 5759 5758 5756 5755 5753 5752 5750 5749 5746 5744 5740 5737 5734 5730 5727 5722 5718 5713 5708 5703 5698 5692 5687 5682 5677 5672 5668 5664 5659 5655 5651
5726 5728 5730 5732 5734 5735 5737 5739 5740 5742 5744 5746 5747 5749 5750 5752 5753 5755 5756 5757 5758 5760 5761 5761 5762 5763 5763 5764 5765 5766 5767 5767 5768 5768 5769 5769 5770 5770 5770 5770 5770 5770 5770 5769 5769 5768 5767 5767 5766 5765 5763 5762 5761 5760 5759 5757 5756 5754 5753 5752 5750 5749 5747 5744 5741 5738 5735 5731 5728 5724 5720 5715 5710 5705 5700 5695 5689 5684 5679 5674 5670 5665 5661 5657 5652 5648
5728 5729 5732 5734 5736 5737 5738 5740 5741 5743 5744 5746 5747 5749 5750 5751 5753 5754 5755 5755 5757 5758 5758 5760 5762 5761 5760 5762 5764 5764 5765 5765 5766 5766 5767 5767 5767 5768 5767 5767 5767 5767 5767 5767 5766 5765 5765 5764 5763 5762 5761 5760 5759 5758 5756 5755 5754 5753 5751 5750 5748 5747 5745 5742 5739 5736 5733 5729 5726 5722 5717 5712 5707 5702 5697 5691 5686 5681 5676 5671 5667 5663 5658 5654 5650 5646
5729 5731 5733 5735 5737 5738 5740 5741 5742 5743 5745 5746 5747 5748 5750 5751 5752 5753 5754 5755 5756 5756 5757 5759 5760 5758 5758 5761 5763 5762 5762 5763 5763 5764 5764 5764 5764 5764 5764 5764 5764 5765 5765 5764 5764 5763 5763 5762 5761 5760 5759 5758 5757 5756 5755 5753 5752 5751 5750 5748 5747 5745 5743 5740 5737 5734 5730 5727 5723 5719 5714 5710 5705 5699 5694 5688 5683 5678 5673 5669 5664 5660 5655 5651 5647 5643
5730 5732 5734 5736 5737 5739 5740 5742 5743 5744 5745 5746 5747 5748 5749 5750 5751 5752 5753 5754 5754 5755 5757 5758 5757 5756 5757 5760 5760 5760 5760 5761 5761 5762 5762 5762 5762 5762 5762 5762 5763 5763 5763 5762 5762 5762 5761 5760 5759 5758 5757 5756 5755 5754 5753 5752 5751 5749 5748 5747 5746 5743 5740 5737 5735 5731 5728 5725 5721 5716 5712 5707 5702 5696 5691 5685 5680 5675 5671 5666 5662 5657 5653 5649 5645 5641
5732 5734 5735 5737 5738 5740 5741 5742 5743 5744 5745 5746 5747 5748 5749 5750 5751 5752 5752 5752 5753 5754 5755 5755 5755 5755 5756 5757 5757 5758 5758 5759 5759 5760 5760 5760 5760 5760 5761 5761 5761 5761 5761 5761 5761 5760 5759 5758 5757 5756 5755 5754 5753 5752 5751 5750 5749 5748 5747 5746 5744 5741 5738 5735 5732 5729 5726 5722 5718 5714 5709 5704 5699 5694 5688 5683 5678 5673 5668 5664 5659 5655 5651 5647 5643 5639
5735 5736 5737 5738 5739 5740 5741 5742 5743 5744 5745 5746 5747 5748 5748 5749 5750 5751 5751 5751 5752 5752 5753 5753 5753 5754 5755 5755 5756 5756 5757 5757 5758 5758 5758 5759 5759 5759 5760 5760 5760 5760 5760 5760 5759 5758 5757 5756 5755 5754 5754 5753 5752 5751 5750 5749 5747 5746 5745 5744 5742 5739 5736 5733 5730 5727 5724 5720 5716 5711 5706 5701 5696 5691 5685 5680 5675 5671 5666 5661 5657 5653 5649 5645 5641 5637
5737 5738 5739 5740 5741 5742 5743 5743 5744 5745 5745 5746 5747 5747 5748 5749 5749 5750 5750 5751 5751 5752 5752 5753 5753 5754 5754 5755 5755 5755 5756 5757 5757 5757 5757 5758 5758 5759 5759 5759 5759 5758 5758 5758 5757 5756 5755 5754 5753 5753 5752 5751 5750 5749 5748 5747 5746 5745 5744 5742 5739 5737 5734 5731 5728 5725 5721 5718 5713 5709 5704 5699 5693 5688 5682 5677 5673 5668 5664 5659 5655 5651 5647 5643 5639 5635
5739 5740 5741 5741 5742 5743 5744 5745 5745 5746 5746 5747 5748 5748 5749 5749 5750 5750 5750 5751 5751 5752 5752 5753 5753 5753 5754 5754 5754 5755 5755 5756 5756 5756 5756 5757 5757 5757 5757 5757 5757 5757 5756 5755 5755 5754 5753 5752 5752 5751 5750 5750 5748 5747 5746 5746 5745 5744 5742 5740 5737 5734 5732 5729 5726 5723 5719 5715 5711 5706 5701 5696 5690 5685 5680 5675 5670 5666 5661 5657 5653 5649 5645 5641 5637 5633
5741 5742 5742 5743 5743 5744 5745 5745 5746 5747 5747 5748 5748 5749 5749 5750 5750 5750 5750 5751 5751 5751 5751 5752 5752 5753 5753 5753 5754 5754 5754 5755 5755 5754 5755 5756 5756 5756 5755 5755 5755 5754 5754 5753 5752 5751 5751 5750 5749 5749 5748 5748 5747 5746 5745 5744 5743 5742 5740 5737 5735 5732 5730 5727 5724 5720 5716 5712 5708 5703 5698 5693 5688 5683 5677 5673 5668 5663 5659 5654 5651 5647 5643 5639 5635 5631
5743 5744 5744 5745 5745 5745 5746 5746 5747 5747 5748 5748 5749 5749 5749 5750 5750 5750 5750 5750 5751 5751 5751 5751 5752 5752 5752 5752 5753 5753 5754 5754 5753 5753 5754 5754 5754 5754 5754 5753 5753 5752 5751 5750 5749 5749 5748 5747 5747 5747 5746 5745 5745 5744 5744 5743 5742 5740 5738 5735 5733 5730 5727 5725 5721 5718 5714 5710 5705 5700 5695 5690 5685 5680 5675 5671 5666 5661 5657 5653 5649 5645 5641 5637 5633 5629
5745 5745 5746 5746 5746 5747 5747 5747 5748 5748 5748 5749 5749 5749 5749 5749 5750 5750 5750 5750 5750 5750 5750 5750 5751 5751 5751 5751 5752 5752 5752 5752 5752 5752 5752 5752 5752 5752 5751 5751 5750 5749 5748 5747 5747 5746 5746 5745 5745 5744 5744 5743 5743 5742 5742 5741 5740 5738 5736 5733 5731 5728 5725 5722 5719 5715 5711 5707 5703 5698 5693 5688 5683 5678 5673 5668 5664 5659 5655 5651 5647 5643 5639 5635 5631 5627
5746 5746 5747 5747 5747 5747 5748 5748 5748 5748 5748 5749 5749 5749 5749 5749 5749 5749 5749 5749 5749 5749 5749 5749 5750 5750 5750 5750 5750 5751 5751 5751 5751 5750 5750 5750 5750 5749 5749 5748 5747 5746 5746 5745 5744 5743 5743 5743 5743 5742 5742 5741 5741 5740 5740 5739 5737 5735 5733 5731 5728 5726 5723 5720 5716 5713 5709 5705 5700 5696 5691 5686 5681 5676 5671 5666 5662 5657 5653 5649 5646 5642 5638 5634 5629 5625
5747 5747 5747 5748 5748 5748 5748 5748 5748 5748 5748 5748 5748 5748 5748 5748 5748 5748 5748 5748 5748 5748 5748 5748 5748 5748 5749 5749 5749 5749 5749 5749 5749 5748 5748 5748 5747 5747 5746 5746 5745 5744 5743 5742 5742 5741 5741 5741 5740 5740 5740 5739 5739 5738 5738 5737 5735 5733 5731 5728 5726 5723 5720 5717 5714 5710 5706 5702 5698 5693 5689 5684 5679 5674 5669 5664 5660 5655 5652 5648 5644 5640 5636 5632 5628 5623
5747 5747 5748 5748 5748 5748 5748 5748 5748 5748 5748 5748 5748 5747 5747 5747 5747 5747 5747 5747 5746 5746 5747 5747 5747 5747 5747 5747 5747 5747 5747 5747 5747 5746 5746 5745 5745 5744 5744 5743 5742 5741 5740 5740 5739 5739 5739 5738 5738 5738 5737 5737 5737 5736 5735 5734 5733 5731 5728 5726 5723 5720 5718 5715 5712 5708 5704 5700 5696 5691 5687 5682 5677 5672 5667 5662 5658 5654 5650 5646 5642 5638 5634 5630 5626 5621
5747 5747 5747 5748 5748 5748 5748 5748 5748 5748 5747 5747 5747 5747 5746 5746 5746 5746 5746 5745 5745 5745 5745 5745 5745 5745 5745 5745 5745 5745 5744 5744 5744 5744 5744 5743 5743 5742 5741 5740 5739 5739 5738 5737 5737 5737 5736 5736 5736 5736 5735 5735 5734 5734 5733 5732 5730 5728 5726 5723 5720 5718 5715 5713 5709 5706 5702 5698 5694 5689 5685 5680 5675 5670 5665 5660 5656 5652 5648 5644 5640 5636 5632 5628 5624 5619
5746 5746 5746 5747 5747 5747 5747 5747 5747 5747 5747 5746 5746 5745 5745 5745 5745 5745 5744 5744 5744 5744 5743 5743 5743 5743 5743 5743 5743 5742 5742 5742 5742 5742 5741 5741 5740 5740 5739 5738 5737 5736 5735 5735 5735 5734 5734 5734 5734 5733 5733 5733 5732 5731 5730 5729 5727 5725 5723 5720 5718 5716 5713 5710 5707 5704 5700 5696 5692 5687 5683 5678 5674 5669 5664 5659 5654 5650 5646 5642 5638 5635 5630 5626 5622 5617
5745 5745 5745 5745 5746 5746 5746 5745 5746 5746 5745 5745 5745 5744 5743 5743 5743 5743 5743 5742 5742 5742 5741 5741 5741 5741 5741 5740 5740 5740 5740 5739 5739 5739 5739 5738 5738 5737 5736 5735 5734 5733 5733 5732 5732 5732 5732 5732 5732 5731 5731 5730 5730 5729 5728 5726 5724 5722 5720 5718 5715 5713 5710 5707 5705 5702 5698 5694 5690 5685 5681 5676 5672 5667 5662 5657 5653 5649 5644 5640 5637 5633 5629 5624 5620 5616
5743 5744 5744 5744 5744 5744 5744 5743 5743 5744 5744 5744 5743 5742 5741 5741 5741 5741 5741 5740 5740 5739 5739 5739 5739 5738 5738 5738 5738 5737 5737 5737 5736 5736 5736 5736 5735 5734 5733 5732 5731 5730 5730 5730 5729 5729 5729 5729 5729 5729 5729 5728 5727 5726 5725 5723 5721 5719 5717 5715 5713 5711 5708 5705 5702 5699 5696 5692 5688 5683 5679 5674 5670 5665 5660 5656 5651 5647 5643 5639 5635 5631 5627 5623 5618 5614
5741 5741 5741 5741 5742 5743 5742 5740 5739 5741 5743 5742 5741 5740 5740 5739 5739 5739 5738 5738 5737 5737 5736 5736 5736 5736 5735 5735 5735 5735 5734 5734 5733 5733 5733 5733 5732 5731 5730 5729 5728 5727 5727 5727 5727 5727 5727 5727 5727 5726 5726 5726 5725 5724 5722 5720 5718 5716 5715 5713 5711 5708 5705 5703 5700 5697 5694 5690 5686 5681 5677 5672 5668 5663 5659 5654 5650 5646 5641 5637 5633 5629 5625 5621 5617 5612
5738 5737 5737 5737 5739 5740 5740 5737 5735 5738 5740 5740 5739 5738 5738 5737 5737 5736 5736 5735 5734 5734 5734 5734 5734 5733 5732 5732 5732 5732 5731 5731 5730 5730 5730 5729 5729 5729 5727 5726 5725 5724 5724 5724 5724 5724 5724 5724 5724 5724 5723 5723 5722 5721 5719 5718 5716 5714 5712 5710 5708 5706 5703 5701 5698 5695 5692 5688 5684 5679 5675 5671 5666 5661 5657 5653 5648 5644 5640 5636 5632 5627 5623 5619 5615 5611
5734 5733 5733 5734 5735 5737 5736 5733 5732 5734 5736 5736 5735 5735 5735 5735 5734 5734 5733 5732 5732 5732 5731 5731 5731 5730 5730 5729 5729 5729 5729 5728 5728 5727 5727 5726 5726 5726 5725 5723 5722 5721 5721 5721 5721 5721 5721 5721 5721 5721 5721 5720 5719 5718 5717 5715 5713 5712 5710 5708 5706 5703 5701 5698 5696 5693 5690 5686 5682 5678 5673 5669 5664 5660 5655 5651 5647 5643 5639 5635 5631 5626 5622 5617 5613 5609
5730 5729 5729 5729 5731 5732 5731 5729 5728 5730 5732 5732 5732 5732 5732 5732 5731 5731 5730 5730 5729 5729 5729 5729 5728 5727 5727 5726 5726 5726 5726 5725 5725 5725 5724 5724 5723 5723 5722 5721 5719 5719 5718 5718 5718 5718 5719 5718 5718 5718 5718 5717 5717 5716 5714 5713 5711 5709 5708 5706 5703 5701 5699 5696 5693 5691 5687 5684 5680 5676 5671 5667 5662 5658 5653 5649 5645 5641 5637 5633 5629 5625 5621 5616 5611 5607